Burbank, CA

12:48 AM PST on January 18, 2018 (GMT -0800)
Burbank-Glendale-Pasadena

Weather History for KBUR - November, 2013

Change the Weather History Date:

Sunday, November 3, 2013

  Actual Average Record
Temperature  
Mean Temperature 65 °F 63 °F  
Max Temperature 72 °F 76 °F 98 °F (1976)
Min Temperature 57 °F 49 °F 38 °F (1974)
Degree Days  
Heating Degree Days 0 3  
Month to date heating degree days 0 9  
Since 1 July heating degree days 27 58  
Cooling Degree Days 0 1  
Month to date cooling degree days 11 3  
Year to date cooling degree days 1970 1234  
Growing Degree Days 14 (Base 50)    
Moisture  
Dew Point 51 °F    
Average Humidity 58    
Maximum Humidity 72    
Minimum Humidity 44    
Precipitation  
Precipitation 0.00 in 0.03 in 0.42 in (1960)
Month to date precipitation 0.00 0.09  
Year to date precipitation 2.71 13.93  
Since 1 July precipitation 0.11  
Sea Level Pressure  
Sea Level Pressure 29.85 in    
Wind  
Wind Speed 5 mph (SSE)    
Max Wind Speed 13 mph    
Max Gust Speed 17 mph    
Visibility 9 miles    
Events      
T = Trace of Precipitation, MM = Missing Value Source: NWS Daily Summary

Daily Weather History Graph

Daily Weather History Graph

Search for Another Location

Airport or City:

Trip Planner

Search our weather history database for the weather conditions in past years. The results will help you decide how hot, cold, wet, or windy it might be!

Date:

Astronomy

Nov. 03, 2013 Rise Set
Actual Time 6:15 AM PST 4:58 PM PST
Civil Twilight 5:49 AM PST 5:24 PM PST
Nautical Twilight 5:19 AM PST 5:53 PM PST
Astronomical Twilight 4:50 AM PST 6:23 PM PST
Moon 6:23 AM PST (11/3) 5:18 PM PST (11/3)
Length of Visible Light 11h 34m
Length of Day
10h 42m
New Moon, 0% of the Moon is Illuminated
Nov 3
New Moon
Nov 9
First Quarter
Nov 17
Full
Nov 25
Last Quarter
Dec 2
New

Hourly Weather History & Observations

Time (PST) Temp. Dew Point Humidity Pressure Visibility Wind Dir Wind Speed Gust Speed Precip Events Conditions
12:53 AM 62.1 °F 54.0 °F 75% 29.87 in 8.0 mi East 3.5 mph - N/A   Overcast
1:53 AM 63.0 °F 53.1 °F 70% 29.87 in 9.0 mi ESE 5.8 mph - N/A   Overcast
1:53 AM 61.0 °F 50.0 °F 67% 29.87 in 9.0 mi NNW 3.5 mph - N/A   Overcast
2:01 AM 60.8 °F 51.8 °F 72% 29.90 in 9.0 mi Calm Calm - N/A   Overcast
2:43 AM 60.8 °F 51.8 °F 72% 29.88 in 9.0 mi Calm Calm - N/A   Scattered Clouds
2:53 AM 59.0 °F 50.0 °F 72% 29.85 in 8.0 mi Calm Calm - N/A   Partly Cloudy
3:53 AM 57.9 °F 48.0 °F 70% 29.85 in 9.0 mi Calm Calm - N/A   Overcast
4:53 AM 61.0 °F 51.1 °F 70% 29.85 in 6.0 mi SSE 3.5 mph - N/A   Haze
5:53 AM 59.0 °F 48.0 °F 67% 29.87 in 10.0 mi SSE 4.6 mph - N/A   Overcast
6:53 AM 60.1 °F 48.9 °F 67% 29.88 in 6.0 mi ESE 4.6 mph - N/A   Haze
7:53 AM 61.0 °F 50.0 °F 67% 29.89 in 6.0 mi East 4.6 mph - N/A   Haze
8:53 AM 62.1 °F 50.0 °F 65% 29.89 in 10.0 mi SE 6.9 mph - N/A   Clear
9:53 AM 64.0 °F 48.0 °F 56% 29.88 in 10.0 mi SE 8.1 mph - N/A   Clear
10:53 AM 66.9 °F 48.0 °F 51% 29.88 in 10.0 mi SSE 5.8 mph - N/A   Clear
11:53 AM 70.0 °F 48.9 °F 47% 29.86 in 10.0 mi SSE 6.9 mph - N/A   Clear
12:53 PM 71.1 °F 48.0 °F 44% 29.82 in 10.0 mi SSE 8.1 mph - N/A   Clear
1:53 PM 71.1 °F 48.0 °F 44% 29.81 in 10.0 mi Variable 4.6 mph - N/A   Clear
2:53 PM 69.1 °F 52.0 °F 54% 29.80 in 10.0 mi SSW 9.2 mph - N/A   Clear
3:53 PM 66.9 °F 51.1 °F 57% 29.80 in 10.0 mi South 8.1 mph - N/A   Clear
4:53 PM 64.9 °F 51.1 °F 61% 29.80 in 10.0 mi South 5.8 mph - N/A   Clear
5:53 PM 63.0 °F 52.0 °F 67% 29.81 in 10.0 mi South 4.6 mph - N/A   Clear
6:44 PM 62.6 °F 51.8 °F 68% 29.85 in 10.0 mi Variable 4.6 mph - N/A   Mostly Cloudy
6:53 PM 63.0 °F 52.0 °F 67% 29.82 in 10.0 mi SSE 5.8 mph - N/A   Overcast
7:53 PM 62.1 °F 51.1 °F 67% 29.83 in 10.0 mi South 3.5 mph - N/A   Partly Cloudy
8:08 PM 62.6 °F 51.8 °F 68% 29.85 in 10.0 mi Calm Calm - N/A   Mostly Cloudy
8:53 PM 62.1 °F 52.0 °F 70% 29.81 in 10.0 mi SE 5.8 mph - N/A   Mostly Cloudy
9:06 PM 62.6 °F 51.8 °F 68% 29.83 in 10.0 mi SSE 3.5 mph - N/A   Scattered Clouds
9:29 PM 62.6 °F 51.8 °F 68% 29.84 in 10.0 mi SE 4.6 mph - N/A   Mostly Cloudy
9:53 PM 61.0 °F 52.0 °F 72% 29.82 in 10.0 mi Calm Calm - N/A   Overcast
10:53 PM 61.0 °F 51.1 °F 70% 29.81 in 8.0 mi Calm Calm - N/A   Mostly Cloudy